TimePST,TemperatureF,Dew PointF,Humidity,Sea Level PressureIn,VisibilityMPH,Wind Direction,Wind SpeedMPH,Gust SpeedMPH,PrecipitationIn,Events,Conditions,WindDirDegrees,DateUTC
12:53 AM,46.0,44.1,93,30.36,10.0,Variable,4.6,-,N/A,,Overcast,0,2013-02-01 08:53:00
1:01 AM,46.4,44.6,93,30.33,10.0,South,3.5,-,N/A,,Overcast,180,2013-02-01 09:01:00
1:53 AM,46.0,43.0,89,30.38,10.0,West,4.6,-,N/A,,Overcast,270,2013-02-01 09:53:00
1:56 AM,46.4,44.6,93,30.35,10.0,Calm,Calm,-,N/A,,Overcast,0,2013-02-01 09:56:00
2:53 AM,45.0,43.0,93,30.38,10.0,South,5.8,-,N/A,,Overcast,180,2013-02-01 10:53:00
3:53 AM,45.0,43.0,93,30.39,10.0,South,3.5,-,N/A,,Overcast,170,2013-02-01 11:53:00
4:04 AM,44.6,42.8,93,30.37,10.0,South,4.6,-,N/A,,Overcast,180,2013-02-01 12:04:00
4:53 AM,45.0,43.0,93,30.40,8.0,South,3.5,-,N/A,,Overcast,180,2013-02-01 12:53:00
5:53 AM,44.6,42.8,93,30.37,8.0,Calm,Calm,-,N/A,,Overcast,0,2013-02-01 13:53:00
6:53 AM,44.1,43.0,96,30.41,8.0,SSE,4.6,-,N/A,,Overcast,160,2013-02-01 14:53:00
7:20 AM,44.6,42.8,93,30.38,8.0,Calm,Calm,-,N/A,,Overcast,0,2013-02-01 15:20:00
7:29 AM,44.6,42.8,93,30.38,8.0,Calm,Calm,-,N/A,,Overcast,0,2013-02-01 15:29:00
7:53 AM,44.1,43.0,96,30.41,5.0,Calm,Calm,-,N/A,,Overcast,0,2013-02-01 15:53:00
8:03 AM,44.6,42.8,93,30.38,7.0,Calm,Calm,-,N/A,,Overcast,0,2013-02-01 16:03:00
8:19 AM,44.6,42.8,93,30.39,10.0,Calm,Calm,-,N/A,,Overcast,0,2013-02-01 16:19:00
8:49 AM,44.6,42.8,93,30.40,10.0,Calm,Calm,-,N/A,,Overcast,0,2013-02-01 16:49:00
8:53 AM,45.0,43.0,93,30.43,10.0,Calm,Calm,-,N/A,,Overcast,0,2013-02-01 16:53:00
9:53 AM,46.0,43.0,89,30.44,10.0,Calm,Calm,-,0.45,,Overcast,0,2013-02-01 17:53:00
10:53 AM,46.9,43.0,86,30.45,10.0,Calm,Calm,-,N/A,,Mostly Cloudy,0,2013-02-01 18:53:00
11:00 AM,46.4,42.8,87,30.43,10.0,Calm,Calm,-,N/A,,Mostly Cloudy,0,2013-02-01 19:00:00
11:07 AM,48.2,42.8,82,30.43,10.0,Calm,Calm,-,N/A,,Mostly Cloudy,0,2013-02-01 19:07:00
11:53 AM,50.0,43.0,77,30.45,10.0,Calm,Calm,-,N/A,,Mostly Cloudy,0,2013-02-01 19:53:00
12:00 PM,48.2,42.8,82,30.42,10.0,NNE,4.6,-,N/A,,Mostly Cloudy,20,2013-02-01 20:00:00
12:41 PM,50.0,42.8,76,30.41,10.0,North,5.8,-,N/A,,Mostly Cloudy,350,2013-02-01 20:41:00
12:53 PM,48.2,42.8,82,30.41,10.0,NNE,6.9,-,N/A,,Overcast,30,2013-02-01 20:53:00
1:53 PM,50.0,41.0,71,30.43,10.0,North,6.9,-,N/A,,Mostly Cloudy,360,2013-02-01 21:53:00
2:45 PM,50.0,42.8,76,30.39,10.0,North,6.9,-,N/A,,Scattered Clouds,360,2013-02-01 22:45:00
2:53 PM,50.0,41.0,71,30.42,10.0,North,6.9,-,N/A,,Scattered Clouds,350,2013-02-01 22:53:00
3:53 PM,48.9,42.1,77,30.42,10.0,North,4.6,-,N/A,,Scattered Clouds,360,2013-02-01 23:53:00
4:53 PM,46.0,41.0,83,30.42,10.0,Calm,Calm,-,N/A,,Clear,0,2013-02-02 00:53:00
5:53 PM,44.1,41.0,89,30.43,9.0,Calm,Calm,-,N/A,,Partly Cloudy,0,2013-02-02 01:53:00
6:53 PM,42.1,41.0,96,30.43,6.0,NNW,3.5,-,N/A,,Clear,330,2013-02-02 02:53:00
7:53 PM,41.0,39.9,96,30.44,5.0,Calm,Calm,-,N/A,,Clear,0,2013-02-02 03:53:00
8:28 PM,39.2,39.2,100,30.41,2.5,Calm,Calm,-,N/A,,Mostly Cloudy,0,2013-02-02 04:28:00
8:45 PM,41.0,39.2,93,30.41,4.0,Calm,Calm,-,N/A,,Scattered Clouds,0,2013-02-02 04:45:00
8:53 PM,39.9,39.0,97,30.43,4.0,Calm,Calm,-,N/A,,Partly Cloudy,0,2013-02-02 04:53:00
9:53 PM,39.9,39.0,97,30.43,3.0,Calm,Calm,-,N/A,,Clear,0,2013-02-02 05:53:00
10:01 PM,41.0,39.2,93,30.40,6.0,Variable,3.5,-,N/A,,Scattered Clouds,0,2013-02-02 06:01:00
10:09 PM,42.8,39.2,87,30.40,6.0,North,6.9,-,N/A,,Mostly Cloudy,350,2013-02-02 06:09:00
10:46 PM,42.8,39.2,87,30.40,6.0,North,5.8,-,N/A,,Overcast,10,2013-02-02 06:46:00
10:53 PM,41.0,39.9,96,30.43,6.0,North,3.5,-,N/A,,Overcast,360,2013-02-02 06:53:00
11:53 PM,41.0,39.0,93,30.43,7.0,North,5.8,-,N/A,,Overcast,10,2013-02-02 07:53:00